sat.trackr.live / text

‹ back to catalog

STARLINK-35771

NORAD 67171 · 2025-303J

PAYLOAD ACTIVE UNKNOWN

§ Identity

Operator
Country
US
Launch date
2025-12-17
Launch site
AFETR
Launch vehicle
Mass (kg)
RCS (m²)

Purposes: comms

External: N2YO · Heavens-Above · Gunter

§ Orbital elements

Epoch: 2026-09-19T10:41:36.781440Z

Period
94.27 min
Inclination
42.9998°
Eccentricity
0.0001175
Mean motion
15.27586227 rev/d
Perigee alt
482.2 km
Apogee alt
483.8 km
Semi-major
6,861.2 km
B*
4.0600e-4
RAAN
296.8303°
Arg perigee
274.4163°
Mean anomaly
85.6554°
Rev number
4,236

§ Raw data

STARLINK-357711 67171U 25303J   26262.44556460  .00010929  00000+0  40600-3 0  99902 67171  42.9998 296.8303 0001175 274.4163  85.6554 15.27586227 42360

JSON: /api/v1/satellites/67171 · /tle

For live sub-satellite position, see the globe view (requires WebGL).

§ Visibility from observer

Set your observer location to see the next 7 days of passes ≥ 10°. The values pass through the URL so the page stays shareable.

No JS? Fill the form by hand. The geolocation button needs JavaScript.